Location: Mason Neck State Park
(38.6428°N, 77.1981°W)
Time: 19:13:06
(UTC-05:00)

ISS - Visible Passes

Search period start: 28 January 2015 00:00
Search period end: 07 February 2015 00:00
Orbit: 402 x 410 km, 51.6° (Epoch: 28 January)

Date Brightness Start Highest point End Pass type
(mag) Time Alt. Az. Time Alt. Az. Time Alt. Az.
28 Jan -0.3 04:49:21 16° ESE 04:49:21 16° ESE 04:50:06 10° ESE visible
28 Jan -1.3 06:22:04 14° WSW 06:23:07 15° SW 06:25:05 10° SSW visible
29 Jan -1.4 05:32:50 21° S 05:32:50 21° S 05:34:21 10° SSE visible
02 Feb -0.8 18:42:26 10° SE 18:42:37 10° SE 18:42:37 10° SE visible
03 Feb -1.8 19:24:16 10° SW 19:26:07 30° SSW 19:26:07 30° SSW visible
04 Feb -2.2 18:32:47 10° SSW 18:35:36 27° SE 18:36:48 22° E visible
04 Feb 0.1 20:09:07 10° W 20:09:31 12° W 20:09:31 12° W visible
05 Feb -2.8 19:16:47 10° WSW 19:19:59 53° NW 19:20:04 53° NNW visible
06 Feb -3.4 18:24:43 10° SW 18:27:58 77° SE 18:30:32 15° NE visible
06 Feb -0.1 20:02:31 10° WNW 20:03:13 13° WNW 20:03:13 13° WNW visible
